Terminal Aerodrome Forecast
Issued by NWS Amarillo, TX

Home | Current Version | Previous Version | Text Only | Print | Product List | Glossary On
Versions: 1 2 3 4 5 6 7 8 9 10 11 12 13
000
FTUS44 KAMA 211100
TAFGUY
TAF
KGUY 211124Z 2112/2212 36005KT P6SM SCT060
     FM211400 07014KT P6SM VCSH BKN060
     FM212200 13010KT P6SM BKN060=

USA.gov is the U.S. government's official web portal to all federal, state and local government web resources and services.